Elyria, OH

8:10 PM EST on February 27, 2017 (GMT -0500)
Lorain County Regional

Weather History for KLPR - November, 2012

Change the Weather History Date:

Tuesday, November 13, 2012

  Actual Average (KCLE) Record (KCLE)
Temperature  
Mean Temperature 34 °F -  
Max Temperature 36 °F 47 °F 72 °F (1989)
Min Temperature 32 °F 33 °F 15 °F (1911)
Degree Days  
Heating Degree Days 31    
Moisture  
Dew Point 25 °F    
Average Humidity 68    
Maximum Humidity 75    
Minimum Humidity 62    
Precipitation  
Precipitation 0.00 in - - ()
Sea Level Pressure  
Sea Level Pressure 30.47 in    
Wind  
Wind Speed 8 mph (West)    
Max Wind Speed 12 mph    
Max Gust Speed -    
Visibility 10 miles    
Events      
Averages and records for this station are not official NWS values.
T = Trace of Precipitation, MM = Missing Value Source: NWS Daily Summary

Daily Weather History Graph

Daily Weather History Graph

Search for Another Location

Airport or City:

Trip Planner

Search our weather history database for the weather conditions in past years. The results will help you decide how hot, cold, wet, or windy it might be!

Date:

Astronomy

Nov. 13, 2012 Rise Set
Actual Time 7:15 AM EST 5:10 PM EST
Civil Twilight 6:45 AM EST 5:40 PM EST
Nautical Twilight 6:12 AM EST 6:13 PM EST
Astronomical Twilight 5:39 AM EST 6:45 PM EST
Moon 6:51 AM EST (11/13) 5:02 PM EST (11/13)
Length of Visible Light 10h 54m
Length of Day
9h 55m
Waning Crescent, 0% of the Moon is Illuminated
Nov 13
Waning Crescent
Nov 13
New
Nov 20
First Quarter
Nov 28
Full
Dec 6
Last Quarter

Hourly Weather History & Observations

Time (EST) Temp. Windchill Dew Point Humidity Pressure Visibility Wind Dir Wind Speed Gust Speed Precip Events Conditions
12:53 AM 33.1 °F 25.5 °F 24.1 °F 70% 30.37 in 10.0 mi West 9.2 mph - N/A   Mostly Cloudy
1:53 AM 33.1 °F 24.9 °F 25.0 °F 72% 30.37 in 10.0 mi WSW 10.4 mph - N/A   Overcast
2:53 AM 33.1 °F 24.4 °F 25.0 °F 72% 30.36 in 10.0 mi WSW 11.5 mph - N/A   Overcast
3:53 AM 33.1 °F 25.5 °F 24.1 °F 70% 30.36 in 10.0 mi WSW 9.2 mph - N/A   Overcast
4:53 AM 33.1 °F 25.5 °F 25.0 °F 72% 30.37 in 10.0 mi WSW 9.2 mph - N/A   Overcast
5:53 AM 33.1 °F 25.5 °F 25.0 °F 72% 30.40 in 10.0 mi WSW 9.2 mph - N/A   Overcast
6:53 AM 32.0 °F 24.8 °F 25.0 °F 75% 30.41 in 10.0 mi WSW 8.1 mph - N/A   Overcast
7:53 AM 33.1 °F 25.5 °F 26.1 °F 75% 30.44 in 10.0 mi WSW 9.2 mph - N/A   Overcast
8:53 AM 34.0 °F 27.2 °F 25.0 °F 70% 30.47 in 10.0 mi WSW 8.1 mph - N/A   Overcast
9:53 AM 35.1 °F 26.9 °F 26.1 °F 70% 30.48 in 10.0 mi West 11.5 mph - N/A   Overcast
10:53 AM 35.1 °F 26.9 °F 25.0 °F 67% 30.50 in 10.0 mi West 11.5 mph - N/A   Overcast
11:53 AM 36.0 °F 30.3 °F 26.1 °F 67% 30.49 in 10.0 mi West 6.9 mph - N/A   Overcast
12:53 PM 36.0 °F 29.6 °F 25.0 °F 64% 30.48 in 10.0 mi WNW 8.1 mph - N/A   Overcast
1:53 PM 36.0 °F 30.3 °F 25.0 °F 64% 30.48 in 10.0 mi NW 6.9 mph - N/A   Overcast
2:53 PM 36.0 °F 31.1 °F 24.1 °F 62% 30.48 in 10.0 mi WNW 5.8 mph - N/A   Overcast
3:53 PM 36.0 °F 33.3 °F 25.0 °F 64% 30.49 in 10.0 mi NNW 3.5 mph - N/A   Overcast
4:53 PM 36.0 °F - 25.0 °F 64% 30.50 in 10.0 mi Calm Calm - N/A   Overcast
5:53 PM 35.1 °F - 26.1 °F 70% 30.51 in 10.0 mi Calm Calm - N/A   Overcast
6:53 PM 35.1 °F 32.2 °F 27.0 °F 72% 30.52 in 10.0 mi WNW 3.5 mph - N/A   Overcast
7:53 PM 35.1 °F 31.0 °F 25.0 °F 67% 30.53 in 10.0 mi SW 4.6 mph - N/A   Overcast
8:53 PM 35.1 °F 32.2 °F 25.0 °F 67% 30.54 in 10.0 mi SW 3.5 mph - N/A   Overcast
9:53 PM 35.1 °F 32.2 °F 24.1 °F 64% 30.56 in 10.0 mi SW 3.5 mph - N/A   Overcast
10:53 PM 35.1 °F - 24.1 °F 64% 30.57 in 10.0 mi Calm Calm - N/A   Overcast
11:53 PM 35.1 °F - 26.1 °F 70% 30.56 in 10.0 mi Calm Calm - N/A   Overcast